Year,Month,Day,Hour,Minute,Value (Times are PST for temperature in C)
2012,06,09,00,00,8.80
2012,06,09,00,01,8.80
2012,06,09,00,02,8.80
2012,06,09,00,03,8.80
2012,06,09,00,04,8.80
2012,06,09,00,05,8.80
2012,06,09,00,06,8.80
2012,06,09,00,07,8.80
2012,06,09,00,08,8.70
2012,06,09,00,09,8.70
2012,06,09,00,10,8.70
2012,06,09,00,11,8.70
2012,06,09,00,12,8.70
2012,06,09,00,13,8.70
2012,06,09,00,14,8.70
2012,06,09,00,15,8.70
2012,06,09,00,16,8.70
2012,06,09,00,17,8.70
2012,06,09,00,18,8.70
2012,06,09,00,19,8.60
2012,06,09,00,20,8.60
2012,06,09,00,21,8.60
2012,06,09,00,22,8.60
2012,06,09,00,23,8.60
2012,06,09,00,24,8.60
2012,06,09,00,25,8.60
2012,06,09,00,26,8.60
2012,06,09,00,27,8.60
2012,06,09,00,28,8.60
2012,06,09,00,29,8.50
2012,06,09,00,30,8.50
2012,06,09,00,31,8.50
2012,06,09,00,32,8.50
2012,06,09,00,33,8.50
2012,06,09,00,34,8.50
2012,06,09,00,35,8.40
2012,06,09,00,36,8.40
2012,06,09,00,37,8.40
2012,06,09,00,38,8.40
2012,06,09,00,39,8.40
2012,06,09,00,40,8.40
2012,06,09,00,41,8.40
2012,06,09,00,42,8.40
2012,06,09,00,43,8.40
2012,06,09,00,44,8.40
2012,06,09,00,45,8.40
2012,06,09,00,46,8.40
2012,06,09,00,47,8.40
2012,06,09,00,48,8.40
2012,06,09,00,49,8.40
2012,06,09,00,50,8.40
2012,06,09,00,51,8.40
2012,06,09,00,52,8.40
2012,06,09,00,53,8.30
2012,06,09,00,54,8.30
2012,06,09,00,55,8.30
2012,06,09,00,56,8.30
2012,06,09,00,57,8.30
2012,06,09,00,58,8.30
2012,06,09,00,59,8.30
2012,06,09,01,00,8.30
2012,06,09,01,01,8.30
2012,06,09,01,02,8.30
2012,06,09,01,03,8.30
2012,06,09,01,04,8.30
2012,06,09,01,05,8.30
2012,06,09,01,06,8.30
2012,06,09,01,07,8.30
2012,06,09,01,08,8.30
2012,06,09,01,09,8.30
2012,06,09,01,10,8.30
2012,06,09,01,11,8.30
2012,06,09,01,12,8.30
2012,06,09,01,13,8.30
2012,06,09,01,14,8.30
2012,06,09,01,15,8.30
2012,06,09,01,16,8.30
2012,06,09,01,17,8.30
2012,06,09,01,18,8.30
2012,06,09,01,19,8.30
2012,06,09,01,20,8.30
2012,06,09,01,21,8.30
2012,06,09,01,22,8.30
2012,06,09,01,23,8.30
2012,06,09,01,24,8.30
2012,06,09,01,25,8.30
2012,06,09,01,26,8.30
2012,06,09,01,27,8.30
2012,06,09,01,28,8.30
2012,06,09,01,29,8.30
2012,06,09,01,30,8.30
2012,06,09,01,31,8.30
2012,06,09,01,32,8.30
2012,06,09,01,33,8.30
2012,06,09,01,34,8.30
2012,06,09,01,35,8.30
2012,06,09,01,36,8.30
2012,06,09,01,37,8.30
2012,06,09,01,38,8.30
2012,06,09,01,39,8.30
2012,06,09,01,40,8.30
2012,06,09,01,41,8.20
2012,06,09,01,42,8.20
2012,06,09,01,43,8.20
2012,06,09,01,44,8.20
2012,06,09,01,45,8.20
2012,06,09,01,46,8.20
2012,06,09,01,47,8.20
2012,06,09,01,48,8.20
2012,06,09,01,49,8.20
2012,06,09,01,50,8.20
2012,06,09,01,51,8.20
2012,06,09,01,52,8.20
2012,06,09,01,53,8.20
2012,06,09,01,54,8.20
2012,06,09,01,55,8.20
2012,06,09,01,56,8.20
2012,06,09,01,57,8.20
2012,06,09,01,58,8.20
2012,06,09,01,59,8.20
2012,06,09,02,00,8.20
2012,06,09,02,01,8.20
2012,06,09,02,02,8.20
2012,06,09,02,03,8.30
2012,06,09,02,04,8.20
2012,06,09,02,05,8.30
2012,06,09,02,06,8.30
2012,06,09,02,07,8.30
2012,06,09,02,08,8.30
2012,06,09,02,09,8.30
2012,06,09,02,10,8.30
2012,06,09,02,11,8.30
2012,06,09,02,12,8.30
2012,06,09,02,13,8.30
2012,06,09,02,14,8.30
2012,06,09,02,15,8.30
2012,06,09,02,16,8.30
2012,06,09,02,17,8.30
2012,06,09,02,18,8.30
2012,06,09,02,19,8.30
2012,06,09,02,20,8.30
2012,06,09,02,21,8.30
2012,06,09,02,22,8.30
2012,06,09,02,23,8.30
2012,06,09,02,24,8.30
2012,06,09,02,25,8.30
2012,06,09,02,26,8.30
2012,06,09,02,27,8.30
2012,06,09,02,28,8.30
2012,06,09,02,29,8.30
2012,06,09,02,30,8.30
2012,06,09,02,31,8.30
2012,06,09,02,32,8.30
2012,06,09,02,33,8.30
2012,06,09,02,34,8.30
2012,06,09,02,35,8.30
2012,06,09,02,36,8.30
2012,06,09,02,37,8.40
2012,06,09,02,38,8.40
2012,06,09,02,39,8.40
2012,06,09,02,40,8.40
2012,06,09,02,41,8.40
2012,06,09,02,42,8.40
2012,06,09,02,43,8.40
2012,06,09,02,44,8.40
2012,06,09,02,45,8.40
2012,06,09,02,46,8.40
2012,06,09,02,47,8.40
2012,06,09,02,48,8.40
2012,06,09,02,49,8.40
2012,06,09,02,50,8.40
2012,06,09,02,51,8.40
2012,06,09,02,52,8.40
2012,06,09,02,53,8.40
2012,06,09,02,54,8.40
2012,06,09,02,55,8.30
2012,06,09,02,56,8.30
2012,06,09,02,57,8.30
2012,06,09,02,58,8.30
2012,06,09,02,59,8.30
2012,06,09,03,00,8.30
2012,06,09,03,01,8.30
2012,06,09,03,02,8.30
2012,06,09,03,03,8.30
2012,06,09,03,04,8.30
2012,06,09,03,05,8.30
2012,06,09,03,06,8.40
2012,06,09,03,07,8.40
2012,06,09,03,08,8.40
2012,06,09,03,09,8.40
2012,06,09,03,10,8.40
2012,06,09,03,11,8.40
2012,06,09,03,12,8.40
2012,06,09,03,13,8.40
2012,06,09,03,14,8.40
2012,06,09,03,15,8.40
2012,06,09,03,16,8.40
2012,06,09,03,17,8.40
2012,06,09,03,18,8.40
2012,06,09,03,19,8.40
2012,06,09,03,20,8.40
2012,06,09,03,21,8.40
2012,06,09,03,22,8.40
2012,06,09,03,23,8.40
2012,06,09,03,24,8.40
2012,06,09,03,25,8.50
2012,06,09,03,26,8.50
2012,06,09,03,27,8.50
2012,06,09,03,28,8.50
2012,06,09,03,29,8.50
2012,06,09,03,30,8.50
2012,06,09,03,31,8.50
2012,06,09,03,32,8.50
2012,06,09,03,33,8.50
2012,06,09,03,34,8.50
2012,06,09,03,35,8.50
2012,06,09,03,36,8.50
2012,06,09,03,37,8.50
2012,06,09,03,38,8.50
2012,06,09,03,39,8.40
2012,06,09,03,40,8.50
2012,06,09,03,41,8.50
2012,06,09,03,42,8.50
2012,06,09,03,43,8.50
2012,06,09,03,44,8.40
2012,06,09,03,45,8.40
2012,06,09,03,46,8.40
2012,06,09,03,47,8.40
2012,06,09,03,48,8.30
2012,06,09,03,49,8.30
2012,06,09,03,50,8.30
2012,06,09,03,51,8.30
2012,06,09,03,52,8.30
2012,06,09,03,53,8.20
2012,06,09,03,54,8.20
2012,06,09,03,55,8.20
2012,06,09,03,56,8.20
2012,06,09,03,57,8.10
2012,06,09,03,58,8.10
2012,06,09,03,59,8.10
2012,06,09,04,00,8.00
2012,06,09,04,01,8.00
2012,06,09,04,02,7.90
2012,06,09,04,03,7.90
2012,06,09,04,04,7.90
2012,06,09,04,05,7.80
2012,06,09,04,06,7.80
2012,06,09,04,07,7.80
2012,06,09,04,08,7.80
2012,06,09,04,09,7.80
2012,06,09,04,10,7.80
2012,06,09,04,11,7.80
2012,06,09,04,12,7.70
2012,06,09,04,13,7.70
2012,06,09,04,14,7.70
2012,06,09,04,15,7.70
2012,06,09,04,16,7.70
2012,06,09,04,17,7.70
2012,06,09,04,18,7.70
2012,06,09,04,19,7.70
2012,06,09,04,20,7.70
2012,06,09,04,21,7.80
2012,06,09,04,22,7.80
2012,06,09,04,23,7.80
2012,06,09,04,24,7.80
2012,06,09,04,25,7.70
2012,06,09,04,26,7.80
2012,06,09,04,27,7.80
2012,06,09,04,28,7.80
2012,06,09,04,29,7.80
2012,06,09,04,30,7.80
2012,06,09,04,31,7.80
2012,06,09,04,32,7.80
2012,06,09,04,33,7.70
2012,06,09,04,34,7.70
2012,06,09,04,35,7.70
2012,06,09,04,36,7.70
2012,06,09,04,37,7.70
2012,06,09,04,38,7.70
2012,06,09,04,39,7.70
2012,06,09,04,40,7.80
2012,06,09,04,41,7.80
2012,06,09,04,42,7.80
2012,06,09,04,43,7.80
2012,06,09,04,44,7.80
2012,06,09,04,45,7.80
2012,06,09,04,46,7.80
2012,06,09,04,47,7.80
2012,06,09,04,48,7.80
2012,06,09,04,49,7.80
2012,06,09,04,50,7.80
2012,06,09,04,51,7.80
2012,06,09,04,52,7.80
2012,06,09,04,53,7.90
2012,06,09,04,54,7.90
2012,06,09,04,55,7.90
2012,06,09,04,56,7.90
2012,06,09,04,57,7.90
2012,06,09,04,58,8.00
2012,06,09,04,59,8.00
2012,06,09,05,00,8.00
2012,06,09,05,01,8.00
2012,06,09,05,02,8.00
2012,06,09,05,03,8.00
2012,06,09,05,04,8.00
2012,06,09,05,05,8.00
2012,06,09,05,06,8.00
2012,06,09,05,07,8.00
2012,06,09,05,08,8.00
2012,06,09,05,09,8.00
2012,06,09,05,10,8.00
2012,06,09,05,11,8.10
2012,06,09,05,12,8.10
2012,06,09,05,13,8.10
2012,06,09,05,14,8.10
2012,06,09,05,15,8.10
2012,06,09,05,16,8.10
2012,06,09,05,17,8.10
2012,06,09,05,18,8.10
2012,06,09,05,19,8.20
2012,06,09,05,20,8.20
2012,06,09,05,21,8.20
2012,06,09,05,22,8.20
2012,06,09,05,23,8.20
2012,06,09,05,24,8.20
2012,06,09,05,25,8.20
2012,06,09,05,26,8.20
2012,06,09,05,27,8.20
2012,06,09,05,28,8.20
2012,06,09,05,29,8.20
2012,06,09,05,30,8.20
2012,06,09,05,31,8.20
2012,06,09,05,32,8.20
2012,06,09,05,33,8.20
2012,06,09,05,34,8.10
2012,06,09,05,35,8.10
2012,06,09,05,36,8.10
2012,06,09,05,37,8.00
2012,06,09,05,38,8.00
2012,06,09,05,39,7.90
2012,06,09,05,40,7.90
2012,06,09,05,41,7.80
2012,06,09,05,42,7.80
2012,06,09,05,43,7.70
2012,06,09,05,44,7.70
2012,06,09,05,45,7.60
2012,06,09,05,46,7.60
2012,06,09,05,47,7.60
2012,06,09,05,48,7.50
2012,06,09,05,49,7.50
2012,06,09,05,50,7.50
2012,06,09,05,51,7.50
2012,06,09,05,52,7.40
2012,06,09,05,53,7.40
2012,06,09,05,54,7.40
2012,06,09,05,55,7.40
2012,06,09,05,56,7.40
2012,06,09,05,57,7.40
2012,06,09,05,58,7.40
2012,06,09,05,59,7.40
2012,06,09,06,00,7.40
2012,06,09,06,01,7.40
2012,06,09,06,02,7.40
2012,06,09,06,03,7.40
2012,06,09,06,04,7.40
2012,06,09,06,05,7.50
2012,06,09,06,06,7.50
2012,06,09,06,07,7.50
2012,06,09,06,08,7.60
2012,06,09,06,09,7.60
2012,06,09,06,10,7.60
2012,06,09,06,11,7.60
2012,06,09,06,12,7.60
2012,06,09,06,13,7.60
2012,06,09,06,14,7.60
2012,06,09,06,15,7.70
2012,06,09,06,16,7.70
2012,06,09,06,17,7.70
2012,06,09,06,18,7.70
2012,06,09,06,19,7.70
2012,06,09,06,20,7.70
2012,06,09,06,21,7.80
2012,06,09,06,22,7.80
2012,06,09,06,23,7.80
2012,06,09,06,24,7.80
2012,06,09,06,25,7.80
2012,06,09,06,26,7.80
2012,06,09,06,27,7.90
2012,06,09,06,28,7.90
2012,06,09,06,29,7.90
2012,06,09,06,30,8.00
2012,06,09,06,31,8.00
2012,06,09,06,32,8.00
2012,06,09,06,33,8.10
2012,06,09,06,34,8.10
2012,06,09,06,35,8.10
2012,06,09,06,36,8.20
2012,06,09,06,37,8.20
2012,06,09,06,38,8.30
2012,06,09,06,39,8.30
2012,06,09,06,40,8.40
2012,06,09,06,41,8.40
2012,06,09,06,42,8.50
2012,06,09,06,43,8.50
2012,06,09,06,44,8.60
2012,06,09,06,45,8.60
2012,06,09,06,46,8.70
2012,06,09,06,47,8.70
2012,06,09,06,48,8.70
2012,06,09,06,49,8.80
2012,06,09,06,50,8.80
2012,06,09,06,51,8.90
2012,06,09,06,52,8.90
2012,06,09,06,53,8.90
2012,06,09,06,54,9.00
2012,06,09,06,55,9.10
2012,06,09,06,56,9.10
2012,06,09,06,57,9.10
2012,06,09,06,58,9.20
2012,06,09,06,59,9.20
2012,06,09,07,00,9.30
2012,06,09,07,01,9.30
2012,06,09,07,02,9.40
2012,06,09,07,03,9.40
2012,06,09,07,04,9.50
2012,06,09,07,05,9.50
2012,06,09,07,06,9.60
2012,06,09,07,07,9.70
2012,06,09,07,08,9.80
2012,06,09,07,09,9.80
2012,06,09,07,10,9.90
2012,06,09,07,11,9.90
2012,06,09,07,12,10.00
2012,06,09,07,13,10.00
2012,06,09,07,14,10.00
2012,06,09,07,15,10.10
2012,06,09,07,16,10.10
2012,06,09,07,17,10.20
2012,06,09,07,18,10.20
2012,06,09,07,19,10.30
2012,06,09,07,20,10.30
2012,06,09,07,21,10.30
2012,06,09,07,22,10.30
2012,06,09,07,23,10.40
2012,06,09,07,24,10.40
2012,06,09,07,25,10.40
2012,06,09,07,26,10.50
2012,06,09,07,27,10.50
2012,06,09,07,28,10.60
2012,06,09,07,29,10.60
2012,06,09,07,30,10.60
2012,06,09,07,31,10.60
2012,06,09,07,32,10.70
2012,06,09,07,33,10.70
2012,06,09,07,34,10.80
2012,06,09,07,35,10.80
2012,06,09,07,36,10.80
2012,06,09,07,37,10.80
2012,06,09,07,38,10.90
2012,06,09,07,39,10.90
2012,06,09,07,40,10.90
2012,06,09,07,41,10.90
2012,06,09,07,42,11.00
2012,06,09,07,43,11.00
2012,06,09,07,44,11.10
2012,06,09,07,45,11.10
2012,06,09,07,46,11.10
2012,06,09,07,47,11.20
2012,06,09,07,48,11.20
2012,06,09,07,49,11.30
2012,06,09,07,50,11.30
2012,06,09,07,51,11.30
2012,06,09,07,52,11.30
2012,06,09,07,53,11.30
2012,06,09,07,54,11.30
2012,06,09,07,55,11.40
2012,06,09,07,56,11.40
2012,06,09,07,57,11.40
2012,06,09,07,58,11.40
2012,06,09,07,59,11.40
2012,06,09,08,00,11.40
2012,06,09,08,01,11.40
2012,06,09,08,02,11.40
2012,06,09,08,03,11.40
2012,06,09,08,04,11.40
2012,06,09,08,05,11.40
2012,06,09,08,06,11.50
2012,06,09,08,07,11.50
2012,06,09,08,08,11.50
2012,06,09,08,09,11.60
2012,06,09,08,10,11.60
2012,06,09,08,11,11.60
2012,06,09,08,12,11.60
2012,06,09,08,13,11.70
2012,06,09,08,14,11.70
2012,06,09,08,15,11.70
2012,06,09,08,16,11.70
2012,06,09,08,17,11.80
2012,06,09,08,18,11.80
2012,06,09,08,19,11.80
2012,06,09,08,20,11.80
2012,06,09,08,21,11.80
2012,06,09,08,22,11.80
2012,06,09,08,23,11.80
2012,06,09,08,24,11.80
2012,06,09,08,25,11.90
2012,06,09,08,26,11.90
2012,06,09,08,27,11.90
2012,06,09,08,28,11.90
2012,06,09,08,29,12.00
2012,06,09,08,30,12.00
2012,06,09,08,31,12.00
2012,06,09,08,32,12.00
2012,06,09,08,33,12.00
2012,06,09,08,34,12.00
2012,06,09,08,35,12.10
2012,06,09,08,36,12.10
2012,06,09,08,37,12.10
2012,06,09,08,38,12.10
2012,06,09,08,39,12.20
2012,06,09,08,40,12.20
2012,06,09,08,41,12.30
2012,06,09,08,42,12.30
2012,06,09,08,43,12.30
2012,06,09,08,44,12.40
2012,06,09,08,45,12.40
2012,06,09,08,46,12.40
2012,06,09,08,47,12.40
2012,06,09,08,48,12.40
2012,06,09,08,49,12.40
2012,06,09,08,50,12.40
2012,06,09,08,51,12.40
2012,06,09,08,52,12.40
2012,06,09,08,53,12.40
2012,06,09,08,54,12.40
2012,06,09,08,55,12.40
2012,06,09,08,56,12.40
2012,06,09,08,57,12.50
2012,06,09,08,58,12.40
2012,06,09,08,59,12.50
2012,06,09,09,00,12.50
2012,06,09,09,01,12.60
2012,06,09,09,02,12.60
2012,06,09,09,03,12.60
2012,06,09,09,04,12.60
2012,06,09,09,05,12.60
2012,06,09,09,06,12.60
2012,06,09,09,07,12.60
2012,06,09,09,08,12.60
2012,06,09,09,09,12.60
2012,06,09,09,10,12.60
2012,06,09,09,11,12.70
2012,06,09,09,12,12.70
2012,06,09,09,13,12.70
2012,06,09,09,14,12.70
2012,06,09,09,15,12.70
2012,06,09,09,16,12.70
2012,06,09,09,17,12.70
2012,06,09,09,18,12.70
2012,06,09,09,19,12.80
2012,06,09,09,20,12.80
2012,06,09,09,21,12.80
2012,06,09,09,22,12.80
2012,06,09,09,23,12.90
2012,06,09,09,24,12.90
2012,06,09,09,25,12.90
2012,06,09,09,26,12.90
2012,06,09,09,27,12.90
2012,06,09,09,28,12.90
2012,06,09,09,29,12.90
2012,06,09,09,30,12.90
2012,06,09,09,31,12.90
2012,06,09,09,32,12.90
2012,06,09,09,33,12.90
2012,06,09,09,34,13.00
2012,06,09,09,35,13.00
2012,06,09,09,36,13.00
2012,06,09,09,37,12.90
2012,06,09,09,38,13.00
2012,06,09,09,39,13.00
2012,06,09,09,40,13.00
2012,06,09,09,41,13.10
2012,06,09,09,42,13.10
2012,06,09,09,43,13.20
2012,06,09,09,44,13.20
2012,06,09,09,45,13.20
2012,06,09,09,46,13.10
2012,06,09,09,47,13.10
2012,06,09,09,48,13.10
2012,06,09,09,49,13.20
2012,06,09,09,50,13.20
2012,06,09,09,51,13.20
2012,06,09,09,52,13.20
2012,06,09,09,53,13.20
2012,06,09,09,54,13.20
2012,06,09,09,55,13.20
2012,06,09,09,56,13.30
2012,06,09,09,57,13.30
2012,06,09,09,58,13.40
2012,06,09,09,59,13.40
2012,06,09,10,00,13.40
2012,06,09,10,01,13.40
2012,06,09,10,02,13.40
2012,06,09,10,03,13.40
2012,06,09,10,04,13.40
2012,06,09,10,05,13.40
2012,06,09,10,06,13.40
2012,06,09,10,07,13.40
2012,06,09,10,08,13.40
2012,06,09,10,09,13.40
2012,06,09,10,10,13.50
2012,06,09,10,11,13.50
2012,06,09,10,12,13.50
2012,06,09,10,13,13.60
2012,06,09,10,14,13.60
2012,06,09,10,15,13.60
2012,06,09,10,16,13.70
2012,06,09,10,17,13.70
2012,06,09,10,18,13.80
2012,06,09,10,19,13.80
2012,06,09,10,20,13.90
2012,06,09,10,21,13.90
2012,06,09,10,22,14.00
2012,06,09,10,23,14.00
2012,06,09,10,24,14.10
2012,06,09,10,25,14.20
2012,06,09,10,26,14.20
2012,06,09,10,27,14.20
2012,06,09,10,28,14.20
2012,06,09,10,29,14.20
2012,06,09,10,30,14.30
2012,06,09,10,31,14.30
2012,06,09,10,32,14.30
2012,06,09,10,33,14.20
2012,06,09,10,34,14.20
2012,06,09,10,35,14.20
2012,06,09,10,36,14.20
2012,06,09,10,37,14.30
2012,06,09,10,38,14.30
2012,06,09,10,39,14.30
2012,06,09,10,40,14.40
2012,06,09,10,41,14.40
2012,06,09,10,42,14.50
2012,06,09,10,43,14.50
2012,06,09,10,44,14.50
2012,06,09,10,45,14.50
2012,06,09,10,46,14.50
2012,06,09,10,47,14.60
2012,06,09,10,48,14.60
2012,06,09,10,49,14.60
2012,06,09,10,50,14.60
2012,06,09,10,51,14.60
2012,06,09,10,52,14.70
2012,06,09,10,53,14.70
2012,06,09,10,54,14.80
2012,06,09,10,55,14.80
2012,06,09,10,56,14.90
2012,06,09,10,57,14.90
2012,06,09,10,58,14.90
2012,06,09,10,59,14.90
2012,06,09,11,00,14.90
2012,06,09,11,01,14.90
2012,06,09,11,02,14.90
2012,06,09,11,03,14.90
2012,06,09,11,04,14.90
2012,06,09,11,05,14.90
2012,06,09,11,06,14.90
2012,06,09,11,07,14.90
2012,06,09,11,08,14.90
2012,06,09,11,09,15.00
2012,06,09,11,10,15.00
2012,06,09,11,11,15.10
2012,06,09,11,12,15.10
2012,06,09,11,13,15.10
2012,06,09,11,14,15.10
2012,06,09,11,15,15.00
2012,06,09,11,16,15.00
2012,06,09,11,17,15.00
2012,06,09,11,18,14.90
2012,06,09,11,19,14.90
2012,06,09,11,20,14.90
2012,06,09,11,21,14.90
2012,06,09,11,22,15.00
2012,06,09,11,23,15.00
2012,06,09,11,24,15.10
2012,06,09,11,25,15.10
2012,06,09,11,26,15.10
2012,06,09,11,27,15.10
2012,06,09,11,28,15.10
2012,06,09,11,29,15.20
2012,06,09,11,30,15.20
2012,06,09,11,31,15.20
2012,06,09,11,32,15.30
2012,06,09,11,33,15.30
2012,06,09,11,34,15.30
2012,06,09,11,35,15.40
2012,06,09,11,36,15.40
2012,06,09,11,37,15.40
2012,06,09,11,38,15.40
2012,06,09,11,39,15.40
2012,06,09,11,40,15.40
2012,06,09,11,41,15.40
2012,06,09,11,42,15.30
2012,06,09,11,43,15.30
2012,06,09,11,44,15.20
2012,06,09,11,45,15.20
2012,06,09,11,46,15.20
2012,06,09,11,47,15.20
2012,06,09,11,48,15.20
2012,06,09,11,49,15.20
2012,06,09,11,50,15.10
2012,06,09,11,51,15.10
2012,06,09,11,52,15.00
2012,06,09,11,53,15.00
2012,06,09,11,54,14.90
2012,06,09,11,55,14.90
2012,06,09,11,56,14.90
2012,06,09,11,57,14.80
2012,06,09,11,58,14.80
2012,06,09,11,59,14.80
2012,06,09,12,00,14.80
2012,06,09,12,01,14.70
2012,06,09,12,02,14.70
2012,06,09,12,03,14.60
2012,06,09,12,04,14.60
2012,06,09,12,05,14.60
2012,06,09,12,06,14.50
2012,06,09,12,07,14.50
2012,06,09,12,08,14.50
2012,06,09,12,09,14.60
2012,06,09,12,10,14.60
2012,06,09,12,11,14.60
2012,06,09,12,12,14.60
2012,06,09,12,13,14.60
2012,06,09,12,14,14.60
2012,06,09,12,15,14.60
2012,06,09,12,16,14.50
2012,06,09,12,17,14.50
2012,06,09,12,18,14.40
2012,06,09,12,19,14.40
2012,06,09,12,20,14.40
2012,06,09,12,21,14.40
2012,06,09,12,22,14.40
2012,06,09,12,23,14.40
2012,06,09,12,24,14.40
2012,06,09,12,25,14.40
2012,06,09,12,26,14.40
2012,06,09,12,27,14.40
2012,06,09,12,28,14.40
2012,06,09,12,29,14.40
2012,06,09,12,30,14.40
2012,06,09,12,31,14.40
2012,06,09,12,32,14.40
2012,06,09,12,33,14.40
2012,06,09,12,34,14.40
2012,06,09,12,35,14.40
2012,06,09,12,36,14.40
2012,06,09,12,37,14.40
2012,06,09,12,38,14.30
2012,06,09,12,39,14.30
2012,06,09,12,40,14.20
2012,06,09,12,41,14.20
2012,06,09,12,42,14.20
2012,06,09,12,43,14.20
2012,06,09,12,44,14.20
2012,06,09,12,45,14.20
2012,06,09,12,46,14.10
2012,06,09,12,47,14.10
2012,06,09,12,48,14.10
2012,06,09,12,49,14.10
2012,06,09,12,50,14.10
2012,06,09,12,51,14.10
2012,06,09,12,52,14.10
2012,06,09,12,53,14.10
2012,06,09,12,54,14.10
2012,06,09,12,55,14.10
2012,06,09,12,56,14.10
2012,06,09,12,57,14.10
2012,06,09,12,58,14.10
2012,06,09,12,59,14.10
2012,06,09,13,00,14.10
2012,06,09,13,01,14.10
2012,06,09,13,02,14.10
2012,06,09,13,03,14.10
2012,06,09,13,04,14.10
2012,06,09,13,05,14.10
2012,06,09,13,06,14.20
2012,06,09,13,07,14.20
2012,06,09,13,08,14.20
2012,06,09,13,09,14.30
2012,06,09,13,10,14.30
2012,06,09,13,11,14.30
2012,06,09,13,12,14.30
2012,06,09,13,13,14.30
2012,06,09,13,14,14.40
2012,06,09,13,15,14.40
2012,06,09,13,16,14.50
2012,06,09,13,17,14.50
2012,06,09,13,18,14.50
2012,06,09,13,19,14.60
2012,06,09,13,20,14.60
2012,06,09,13,21,14.60
2012,06,09,13,22,14.70
2012,06,09,13,23,14.70
2012,06,09,13,24,14.80
2012,06,09,13,25,14.80
2012,06,09,13,26,14.80
2012,06,09,13,27,14.90
2012,06,09,13,28,14.90
2012,06,09,13,29,14.90
2012,06,09,13,30,14.90
2012,06,09,13,31,14.90
2012,06,09,13,32,14.90
2012,06,09,13,33,15.00
2012,06,09,13,34,15.00
2012,06,09,13,35,15.00
2012,06,09,13,36,15.10
2012,06,09,13,37,15.10
2012,06,09,13,38,15.10
2012,06,09,13,39,15.10
2012,06,09,13,40,15.20
2012,06,09,13,41,15.20
2012,06,09,13,42,15.20
2012,06,09,13,43,15.20
2012,06,09,13,44,15.20
2012,06,09,13,45,15.30
2012,06,09,13,46,15.30
2012,06,09,13,47,15.30
2012,06,09,13,48,15.30
2012,06,09,13,49,15.30
2012,06,09,13,50,15.30
2012,06,09,13,51,15.30
2012,06,09,13,52,15.30
2012,06,09,13,53,15.30
2012,06,09,13,54,15.30
2012,06,09,13,55,15.30
2012,06,09,13,56,15.30
2012,06,09,13,57,15.20
2012,06,09,13,58,15.20
2012,06,09,13,59,15.20
2012,06,09,14,00,15.20
2012,06,09,14,01,15.20
2012,06,09,14,02,15.20
2012,06,09,14,03,15.20
2012,06,09,14,04,15.20
2012,06,09,14,05,15.20
2012,06,09,14,06,15.20
2012,06,09,14,07,15.20
2012,06,09,14,08,15.30
2012,06,09,14,09,15.30
2012,06,09,14,10,15.30
2012,06,09,14,11,15.30
2012,06,09,14,12,15.30
2012,06,09,14,13,15.30
2012,06,09,14,14,15.40
2012,06,09,14,15,15.40
2012,06,09,14,16,15.40
2012,06,09,14,17,15.40
2012,06,09,14,18,15.40
2012,06,09,14,19,15.40
2012,06,09,14,20,15.50
2012,06,09,14,21,15.60
2012,06,09,14,22,15.70
2012,06,09,14,23,15.70
2012,06,09,14,24,15.80
2012,06,09,14,25,15.80
2012,06,09,14,26,15.80
2012,06,09,14,27,15.80
2012,06,09,14,28,15.80
2012,06,09,14,29,15.80
2012,06,09,14,30,15.80
2012,06,09,14,31,15.90
2012,06,09,14,32,15.90
2012,06,09,14,33,16.00
2012,06,09,14,34,16.10
2012,06,09,14,35,16.10
2012,06,09,14,36,16.10
2012,06,09,14,37,16.10
2012,06,09,14,38,16.10
2012,06,09,14,39,16.10
2012,06,09,14,40,16.20
2012,06,09,14,41,16.10
2012,06,09,14,42,16.10
2012,06,09,14,43,16.10
2012,06,09,14,44,16.10
2012,06,09,14,45,16.10
2012,06,09,14,46,16.10
2012,06,09,14,47,16.10
2012,06,09,14,48,16.10
2012,06,09,14,49,16.10
2012,06,09,14,50,16.10
2012,06,09,14,51,16.10
2012,06,09,14,52,16.10
2012,06,09,14,53,16.10
2012,06,09,14,54,16.20
2012,06,09,14,55,16.30
2012,06,09,14,56,16.40
2012,06,09,14,57,16.40
2012,06,09,14,58,16.40
2012,06,09,14,59,16.30
2012,06,09,15,00,16.30
2012,06,09,15,01,16.30
2012,06,09,15,02,16.20
2012,06,09,15,03,16.10
2012,06,09,15,04,16.00
2012,06,09,15,05,15.90
2012,06,09,15,06,15.80
2012,06,09,15,07,15.80
2012,06,09,15,08,15.80
2012,06,09,15,09,15.80
2012,06,09,15,10,15.80
2012,06,09,15,11,15.80
2012,06,09,15,12,15.70
2012,06,09,15,13,15.70
2012,06,09,15,14,15.70
2012,06,09,15,15,15.70
2012,06,09,15,16,15.60
2012,06,09,15,17,15.60
2012,06,09,15,18,15.60
2012,06,09,15,19,15.60
2012,06,09,15,20,15.50
2012,06,09,15,21,15.50
2012,06,09,15,22,15.50
2012,06,09,15,23,15.40
2012,06,09,15,24,15.40
2012,06,09,15,25,15.40
2012,06,09,15,26,15.30
2012,06,09,15,27,15.30
2012,06,09,15,28,15.30
2012,06,09,15,29,15.30
2012,06,09,15,30,15.30
2012,06,09,15,31,15.40
2012,06,09,15,32,15.50
2012,06,09,15,33,15.50
2012,06,09,15,34,15.60
2012,06,09,15,35,15.70
2012,06,09,15,36,15.80
2012,06,09,15,37,15.90
2012,06,09,15,38,15.90
2012,06,09,15,39,16.00
2012,06,09,15,40,16.00
2012,06,09,15,41,16.10
2012,06,09,15,42,16.00
2012,06,09,15,43,16.00
2012,06,09,15,44,15.90
2012,06,09,15,45,15.90
2012,06,09,15,46,15.80
2012,06,09,15,47,15.80
2012,06,09,15,48,15.80
2012,06,09,15,49,15.90
2012,06,09,15,50,15.90
2012,06,09,15,51,15.90
2012,06,09,15,52,15.90
2012,06,09,15,53,15.80
2012,06,09,15,54,15.80
2012,06,09,15,55,15.80
2012,06,09,15,56,15.70
2012,06,09,15,57,15.60
2012,06,09,15,58,15.60
2012,06,09,15,59,15.50
2012,06,09,16,00,15.40
2012,06,09,16,01,15.40
2012,06,09,16,02,15.30
2012,06,09,16,03,15.30
2012,06,09,16,04,15.30
2012,06,09,16,05,15.30
2012,06,09,16,06,15.20
2012,06,09,16,07,15.20
2012,06,09,16,08,15.10
2012,06,09,16,09,15.10
2012,06,09,16,10,15.10
2012,06,09,16,11,15.10
2012,06,09,16,12,15.10
2012,06,09,16,13,15.20
2012,06,09,16,14,15.20
2012,06,09,16,15,15.20
2012,06,09,16,16,15.20
2012,06,09,16,17,15.10
2012,06,09,16,18,15.00
2012,06,09,16,19,15.00
2012,06,09,16,20,15.00
2012,06,09,16,21,15.10
2012,06,09,16,22,15.10
2012,06,09,16,23,15.20
2012,06,09,16,24,15.20
2012,06,09,16,25,15.30
2012,06,09,16,26,15.30
2012,06,09,16,27,15.40
2012,06,09,16,28,15.30
2012,06,09,16,29,15.30
2012,06,09,16,30,15.20
2012,06,09,16,31,15.20
2012,06,09,16,32,15.20
2012,06,09,16,33,15.10
2012,06,09,16,34,15.00
2012,06,09,16,35,14.90
2012,06,09,16,36,14.90
2012,06,09,16,37,14.80
2012,06,09,16,38,14.80
2012,06,09,16,39,14.80
2012,06,09,16,40,14.70
2012,06,09,16,41,14.70
2012,06,09,16,42,14.70
2012,06,09,16,43,14.80
2012,06,09,16,44,14.80
2012,06,09,16,45,14.80
2012,06,09,16,46,14.90
2012,06,09,16,47,14.90
2012,06,09,16,48,14.90
2012,06,09,16,49,15.00
2012,06,09,16,50,15.00
2012,06,09,16,51,15.00
2012,06,09,16,52,15.00
2012,06,09,16,53,15.00
2012,06,09,16,54,15.00
2012,06,09,16,55,14.90
2012,06,09,16,56,14.90
2012,06,09,16,57,14.80
2012,06,09,16,58,14.70
2012,06,09,16,59,14.70
2012,06,09,17,00,14.70
2012,06,09,17,01,14.60
2012,06,09,17,02,14.50
2012,06,09,17,03,14.50
2012,06,09,17,04,14.40
2012,06,09,17,05,14.40
2012,06,09,17,06,14.40
2012,06,09,17,07,14.40
2012,06,09,17,08,14.30
2012,06,09,17,09,14.30
2012,06,09,17,10,14.30
2012,06,09,17,11,14.30
2012,06,09,17,12,14.20
2012,06,09,17,13,14.20
2012,06,09,17,14,14.20
2012,06,09,17,15,14.20
2012,06,09,17,16,14.20
2012,06,09,17,17,14.20
2012,06,09,17,18,14.10
2012,06,09,17,19,14.10
2012,06,09,17,20,14.10
2012,06,09,17,21,14.00
2012,06,09,17,22,14.10
2012,06,09,17,23,14.00
2012,06,09,17,24,14.00
2012,06,09,17,25,14.00
2012,06,09,17,26,13.90
2012,06,09,17,27,13.90
2012,06,09,17,28,13.90
2012,06,09,17,29,13.90
2012,06,09,17,30,13.90
2012,06,09,17,31,13.90
2012,06,09,17,32,13.90
2012,06,09,17,33,13.90
2012,06,09,17,34,13.90
2012,06,09,17,35,14.00
2012,06,09,17,36,14.00
2012,06,09,17,37,13.90
2012,06,09,17,38,13.90